Change the Weather History Date:

Sunday, February 24, 2013

  Actual Average Record
Temperature  
Mean Temperature 18 °F -  
Max Temperature 30 °F 31 °F 53 °F (1998)
Min Temperature 6 °F 17 °F 0 °F (2003)
Degree Days  
Heating Degree Days 47    
Moisture  
Dew Point 18 °F    
Average Humidity 89    
Maximum Humidity 100    
Minimum Humidity 74    
Precipitation  
Precipitation 0.00 in - - ()
Sea Level Pressure  
Sea Level Pressure 29.99 in    
Wind  
Wind Speed 4 mph (ESE)    
Max Wind Speed 8 mph    
Max Gust Speed -    
Visibility 5 miles    
Events Snow    
Averages and records for this station are not official NWS values.
T = Trace of Precipitation, MM = Missing Value Source: NWS Daily Summary

Daily Weather History Graph

Daily Weather History Graph

Search for Another Location

Airport or City:

Trip Planner

Search our weather history database for the weather conditions in past years. The results will help you decide how hot, cold, wet, or windy it might be!

Date:

Astronomy

Feb. 24, 2013 Rise Set
Actual Time 7:00 AM CST 6:00 PM CST
Civil Twilight 6:32 AM CST 6:29 PM CST
Nautical Twilight 5:59 AM CST 7:02 PM CST
Astronomical Twilight 5:26 AM CST 7:34 PM CST
Moon 5:12 PM CST (2/24) 5:59 AM CST (2/24)
Length of Visible Light 11h 57m
Length of Day
10h 59m
Waxing Gibbous, 99% of the Moon is Illuminated
Feb 24
Waxing Gibbous
Feb 25
Full
Mar 4
Last Quarter
Mar 11
New
Mar 19
First Quarter

Hourly Weather History & Observations

Time (CST) Temp. Windchill Dew Point Humidity Pressure Visibility Wind Dir Wind Speed Gust Speed Precip Events Conditions
12:15 AM 12.2 °F 2.9 °F 10.4 °F 92% 29.90 in 6.0 mi ESE 5.8 mph - N/A   Clear
12:35 AM 12.2 °F 4.3 °F 10.4 °F 92% 29.90 in 6.0 mi ESE 4.6 mph - N/A   Clear
12:55 AM 10.4 °F 2.2 °F 8.6 °F 92% 29.91 in 6.0 mi SE 4.6 mph - N/A   Clear
1:15 AM 12.2 °F 2.9 °F 10.4 °F 92% 29.91 in 6.0 mi ESE 5.8 mph - N/A   Clear
1:35 AM 12.2 °F 6.1 °F 10.4 °F 92% 29.91 in 5.0 mi East 3.5 mph - N/A   Scattered Clouds
1:55 AM 12.2 °F 6.1 °F 10.4 °F 92% 29.91 in 6.0 mi East 3.5 mph - N/A   Partly Cloudy
2:15 AM 10.4 °F 2.2 °F 6.8 °F 85% 29.91 in 5.0 mi East 4.6 mph - N/A   Clear
2:35 AM 8.6 °F 0.1 °F 5.0 °F 85% 29.91 in 5.0 mi East 4.6 mph - N/A   Clear
2:55 AM 8.6 °F 0.1 °F 5.0 °F 85% 29.92 in 5.0 mi East 4.6 mph - N/A Snow Light Snow
3:15 AM 10.4 °F 2.2 °F 8.6 °F 92% 29.92 in 6.0 mi ESE 4.6 mph - N/A   Scattered Clouds
3:35 AM 8.6 °F -1.3 °F 6.8 °F 92% 29.91 in 6.0 mi East 5.8 mph - N/A   Partly Cloudy
3:55 AM 8.6 °F - 5.0 °F 85% 29.92 in 5.0 mi Calm Calm - N/A   Scattered Clouds
4:15 AM 8.6 °F 2.0 °F 5.0 °F 85% 29.92 in 6.0 mi East 3.5 mph - N/A   Mostly Cloudy
4:35 AM 8.6 °F 0.1 °F 5.0 °F 85% 29.93 in 6.0 mi East 4.6 mph - N/A   Partly Cloudy
4:55 AM 6.8 °F - 3.2 °F 85% 29.94 in 7.0 mi Calm Calm - N/A   Clear
5:15 AM 10.4 °F 2.2 °F 6.8 °F 85% 29.93 in 6.0 mi East 4.6 mph - N/A   Clear
5:35 AM 8.6 °F 0.1 °F 5.0 °F 85% 29.94 in 6.0 mi ESE 4.6 mph - N/A   Clear
5:55 AM 10.4 °F 2.2 °F 8.6 °F 92% 29.94 in 5.0 mi ESE 4.6 mph - N/A   Clear
6:15 AM 12.2 °F 4.3 °F 8.6 °F 85% 29.94 in 5.0 mi SE 4.6 mph - N/A   Clear
6:35 AM 10.4 °F 0.8 °F 8.6 °F 92% 29.95 in 5.0 mi SE 5.8 mph - N/A   Clear
7:15 AM 8.6 °F 0.1 °F 6.8 °F 92% 29.96 in 3.0 mi SE 4.6 mph - N/A   Clear
7:35 AM 10.4 °F 2.2 °F 8.6 °F 92% 29.97 in 3.0 mi SE 4.6 mph - N/A   Clear
7:55 AM 10.4 °F 4.0 °F 8.6 °F 92% 29.98 in 4.0 mi Variable 3.5 mph - N/A   Mostly Cloudy
8:15 AM 14.0 °F 5.1 °F 12.2 °F 93% 29.98 in 4.0 mi SE 5.8 mph - N/A   Overcast
8:35 AM 14.0 °F 3.9 °F 12.2 °F 93% 29.98 in 4.0 mi SE 6.9 mph - N/A   Overcast
8:55 AM 14.0 °F - 12.2 °F 93% 29.99 in 4.0 mi Calm Calm - N/A Snow Light Snow
9:15 AM 15.8 °F - 14.0 °F 93% 29.99 in 4.0 mi Calm Calm - N/A   Mostly Cloudy
9:35 AM 17.6 °F - 15.8 °F 93% 30.00 in 4.0 mi Calm Calm - N/A   Overcast
9:55 AM 17.6 °F 10.7 °F 15.8 °F 93% 30.00 in 5.0 mi SE 4.6 mph - N/A   Scattered Clouds
10:15 AM 15.8 °F 10.2 °F 14.0 °F 93% 30.01 in 6.0 mi SW 3.5 mph - N/A   Clear
10:35 AM 19.4 °F 11.5 °F 17.6 °F 93% 30.01 in 5.0 mi South 5.8 mph - N/A   Clear
10:55 AM 19.4 °F - 17.6 °F 93% 30.02 in 6.0 mi Calm Calm - N/A   Clear
11:15 AM 21.2 °F 14.9 °F 21.2 °F 100% 30.02 in 6.0 mi SSW 4.6 mph - N/A   Clear
11:35 AM 21.2 °F 11.7 °F 19.4 °F 93% 30.03 in 6.0 mi SSW 8.1 mph - N/A   Clear
11:55 AM 21.2 °F 12.6 °F 19.4 °F 93% 30.04 in 5.0 mi South 6.9 mph - N/A   Clear
12:15 PM 21.2 °F 13.6 °F 19.4 °F 93% 30.04 in 6.0 mi SSW 5.8 mph - N/A   Mostly Cloudy
12:35 PM 21.2 °F - 17.6 °F 86% 30.03 in 6.0 mi Calm Calm - N/A   Overcast
12:55 PM 23.0 °F - 19.4 °F 86% 30.02 in 5.0 mi Calm Calm - N/A   Overcast
1:15 PM 26.6 °F 20.0 °F 21.2 °F 80% 30.02 in 6.0 mi SE 5.8 mph - N/A   Haze
1:35 PM 26.6 °F 21.2 °F 21.2 °F 80% 30.01 in 7.0 mi SE 4.6 mph - N/A   Overcast
1:55 PM 28.4 °F 24.6 °F 21.2 °F 74% 30.01 in 7.0 mi East 3.5 mph - N/A   Overcast
2:15 PM 28.4 °F - 23.0 °F 80% 30.00 in 7.0 mi Calm Calm - N/A   Overcast
2:35 PM 28.4 °F 22.2 °F 23.0 °F 80% 29.99 in 6.0 mi ESE 5.8 mph - N/A   Haze
2:55 PM 28.4 °F 20.4 °F 23.0 °F 80% 29.99 in 5.0 mi SE 8.1 mph - N/A   Haze
3:15 PM 28.4 °F 21.2 °F 23.0 °F 80% 29.99 in 5.0 mi SE 6.9 mph - N/A   Haze
3:35 PM 28.4 °F 21.2 °F 24.8 °F 86% 29.99 in 5.0 mi SE 6.9 mph - N/A   Haze
3:55 PM 28.4 °F 21.2 °F 24.8 °F 86% 29.99 in - SE 6.9 mph - N/A   Overcast
4:15 PM 28.4 °F 22.2 °F 24.8 °F 86% 30.00 in 5.0 mi SE 5.8 mph - N/A   Haze
4:35 PM 28.4 °F 24.6 °F 24.8 °F 86% 30.00 in 4.0 mi SE 3.5 mph - N/A   Overcast
4:55 PM 30.2 °F - 24.8 °F 80% 30.00 in 5.0 mi Calm Calm - N/A   Haze
5:15 PM 30.2 °F - 24.8 °F 80% 30.00 in 5.0 mi Calm Calm - N/A   Haze
5:35 PM 28.4 °F - 24.8 °F 86% 30.00 in 5.0 mi Calm Calm - N/A   Overcast
5:55 PM 28.4 °F - 26.6 °F 93% 30.01 in 4.0 mi Calm Calm - N/A   Overcast
6:15 PM 28.4 °F - 26.6 °F 93% 30.01 in 4.0 mi Calm Calm - N/A   Overcast
6:35 PM 28.4 °F 24.6 °F 26.6 °F 93% 30.02 in 5.0 mi ENE 3.5 mph - N/A   Overcast
6:55 PM 28.4 °F - 26.6 °F 93% 30.03 in 5.0 mi Calm Calm - N/A   Overcast
7:15 PM 28.4 °F 24.6 °F 26.6 °F 93% 30.03 in 5.0 mi ESE 3.5 mph - N/A   Overcast
7:35 PM 30.2 °F - 26.6 °F 86% 30.03 in 5.0 mi Calm Calm - N/A   Overcast
7:55 PM 30.2 °F - 26.6 °F 86% 30.03 in 5.0 mi Calm Calm - N/A   Overcast
8:15 PM 30.2 °F - 26.6 °F 86% 30.04 in 5.0 mi Calm Calm - N/A   Overcast
8:35 PM 28.4 °F - 26.6 °F 93% 30.04 in 5.0 mi Calm Calm - N/A   Overcast
8:55 PM 28.4 °F 24.6 °F 26.6 °F 93% 30.04 in 5.0 mi ENE 3.5 mph - N/A   Overcast
9:15 PM 28.4 °F 24.6 °F 26.6 °F 93% 30.04 in 5.0 mi ESE 3.5 mph - N/A   Overcast
9:35 PM 28.4 °F - 26.6 °F 93% 30.05 in 5.0 mi Calm Calm - N/A   Overcast
9:55 PM 28.4 °F - 26.6 °F 93% 30.05 in 5.0 mi Calm Calm - N/A   Overcast
10:15 PM 28.4 °F - 26.6 °F 93% 30.06 in 5.0 mi Calm Calm - N/A   Overcast
10:35 PM 28.4 °F - 26.6 °F 93% 30.06 in 5.0 mi Calm Calm - N/A   Overcast
10:55 PM 28.4 °F - 26.6 °F 93% 30.06 in 5.0 mi Calm Calm - N/A   Overcast
11:15 PM 28.4 °F - 26.6 °F 93% 30.06 in 5.0 mi Calm Calm - N/A   Overcast
11:35 PM 28.4 °F - 26.6 °F 93% 30.06 in 4.0 mi Calm Calm - N/A   Overcast
11:55 PM 26.6 °F - 26.6 °F 100% 30.06 in 4.0 mi Calm Calm - N/A   Overcast